Preview of NWS' New Version of Forecast
This preview is not operational and should not be used for support decisions.

Regional Weather Roundup (RWR)

Issued by National Weather Service (NWS)

                            
000
ASUS43 KMKX 252211
RWRWI 

WISCONSIN REGIONAL WEATHER ROUNDUP
NATIONAL WEATHER SERVICE MILWAUKEE/SULLIVAN WI
500 PM CDT SUN AUG 25 2019

NOTE: "FAIR" INDICATES FEW OR NO CLOUDS BELOW 12,000 FEET WITH NO
SIGNIFICANT WEATHER AND/OR OBSTRUCTIONS TO VISIBILITY.

WIZ001-002-006>008-014>016-023>028-252300-
NORTHWEST WISCONSIN
  
CITY           SKY/WX    TMP DP  RH WIND       PRES   REMARKS
SUPERIOR ARPT  PTSUNNY   71  54  54 S10       29.97F                  
ASHLAND        FAIR      74  55  51 S9        30.00F                  
HAYWARD        FAIR      71  53  52 S14       30.01F                  
SIREN          CLOUDY    69  53  54 SE10      29.98F                  
CUMBERLAND     CLOUDY    68  52  56 S10       30.00F                  
RICE LAKE      NOT AVBL                                               
CHETEK         PTSUNNY   72  56  57 SE10      30.01F                  
LADYSMITH      FAIR      69  54  57 S8        30.05S                  
EAU CLAIRE     PTSUNNY   72  54  53 S12       29.99F                  
MENOMONIE      PTSUNNY   67  53  60 SE12      30.00F                  
NEW RICHMOND   CLOUDY    68  54  59 SE8       29.98F                  
OSCEOLA        CLOUDY    69  56  63 SE10      30.00F                  
$$
 
WIZ003>005-009-010-017-018-252300-
NORTH CENTRAL WISCONSIN
  
CITY           SKY/WX    TMP DP  RH WIND       PRES   REMARKS
MANITOWISH WTR FAIR      68  55  61 S12G17    30.04F                  
ARBOR VITAE    PTSUNNY   72  56  57 S13       30.05F                  
WOODRUFF       PTSUNNY   72  56  57 S13       30.05F                  
RHINELANDER    FAIR      69  53  56 S8        30.06F                  
EAGLE RIVER    FAIR      70  52  53 SE10      30.06S                  
LAND O LAKES   FAIR      70  52  53 S9        30.07                   
PHILLIPS       FAIR      68  55  63 S7        30.04S                  
TOMAHAWK       FAIR      69  54  59 SE5       30.06S                  
MEDFORD        PTSUNNY   65  53  65 SE7       30.05S                  
MERRILL        FAIR      69  55  61 S12       30.05F                  
$$
 
WIZ029-030-035-036-043>047-252300-
CENTRAL WISCONSIN
  
CITY           SKY/WX    TMP DP  RH WIND       PRES   REMARKS
WAUSAU         FAIR      70  54  56 SE14      30.03F                  
MOSINEE        PTSUNNY   70  57  64 E9        30.05F                  
MARSHFIELD     FAIR      70  55  59 S8        30.03F                  
STEVENS POINT  PTSUNNY   69  54  58 SE6       30.04F                  
WAUPACA        FAIR      75  54  47 SE10      30.04F                  
WAUTOMA        PTSUNNY   73  58  59 SE7         N/A                   
WISC RAPIDS    PTSUNNY   72  55  55 SE6       30.03F                  
CAMP DOUGLAS   PTSUNNY   70  61  73 SE6       30.01                   
$$
 
WIZ011>013-019>022-031-037>040-048>050-252300-
NORTHEAST WISCONSIN
  
CITY           SKY/WX    TMP DP  RH WIND       PRES   REMARKS
ANTIGO         FAIR      67  55  64 SE14      30.07F                  
SHAWANO        FAIR      74  56  52 E13       30.07F                  
OCONTO         FAIR      72  56  57 SE9       30.08F                  
STURGEON BAY   FAIR      70  58  65 SE8       30.10F                  
GREEN BAY      FAIR      74  57  55 E14       30.07F                  
MANITOWOC      FAIR      69  58  67 SE7       30.09F                  
APPLETON       PTSUNNY   72  54  53 SE12      30.05F                  
CLINTONVILLE   FAIR      72  54  52 SE10      30.06F                  
OSHKOSH        FAIR      71  55  56 SE14      30.05F                  
$$
 
WIZ032>034-041-042-053>061-252300-
SOUTHWEST WISCONSIN
  
CITY           SKY/WX    TMP DP  RH WIND       PRES   REMARKS
LA CROSSE      FAIR      72  59  63 SE7       29.99F                  
SPARTA         FAIR      69  59  71 SE7       30.02F                  
VIROQUA        CLOUDY    69  60  74 SE10      30.02F                  
BOSCOBEL       PTSUNNY   72  60  66 E6        30.00F                  
PRAIRIE DU CHI PTSUNNY   71  56  58 SE5       29.99S                  
PLATTEVILLE    CLOUDY    66  63  89 E7        30.02S                  
$$

WIZ056-057-062-063-064-067-068-252300-
SOUTH CENTRAL WISCONSIN
  
CITY           SKY/WX    TMP DP  RH WIND       PRES   REMARKS
REEDSBURG      PTSUNNY   71  56  60 SE8       30.02S                  
BARABOO/DELLS  CLOUDY    71  57  62 SE5       30.02F                  
LONE ROCK      CLOUDY    71  57  61 SE7       30.01F                  
MINERAL POINT  CLOUDY    68  63  83 E3        30.02F                  
MADISON        CLOUDY    72  57  59 E13       30.02F                  
MIDDLETON      PTSUNNY   73  55  53 SE8       30.02F                  
WATERTOWN      FAIR      71  56  59 E9        30.04S                  
MONROE         PTSUNNY   71  56  59 CALM      30.02S                  
JANESVILLE     CLOUDY    73  55  53 E14G20    30.02F                  
$$
 
WIZ051-052-058>065-066-070>072-252300-
SOUTHEAST WISCONSIN
  
CITY           SKY/WX    TMP DP  RH WIND       PRES   REMARKS
MILWAUKEE      PTSUNNY   72  55  55 E13       30.05F                  
WAUKESHA       PTSUNNY   68  52  56 E12       30.06F                  
MILWAUKEE/TIMM MOSUNNY   70  54  56 E9        30.06F                  
RACINE         FAIR      73  56  54 E12       30.07F                  
KENOSHA        FAIR      73  57  57 E12       30.05F                  
FOND DU LAC    FAIR      73  55  53 SE14G23   30.06F                  
SHEBOYGAN      FAIR      71  56  58 SE9       30.08F                  
WEST BEND      FAIR      68  59  73 E8        30.06F                  
JUNEAU         PTSUNNY   69  56  63 E9G16     30.06S                  
$$

LSZ147-162-252300-
LAKE SUPERIOR
  
STATION/POSITION TIME  TEMP    WIND        PRES    WAVE
                       AIR SEA DIR/SP/G            HT/PER
                 (UTC) (F)     (DEG/KT/KT) (MB)    (FT/S)
W MID LAKE BUOY  2150   65 65   50/ 10/ 10 1016.2F   1/ 4
DEVILS ISLAND    2200   66      80/ 13/ 14 1015.9F
SAXON HARBOR     2140   75     160/  6/ 16 1015.2F
$$
 
LMZ867-665-643>646-252300-
LAKE MICHIGAN
  
STATION/POSITION TIME  TEMP    WIND        PRES    WAVE
                       AIR SEA DIR/SP/G            HT/PER
                 (UTC) (F)     (DEG/KT/KT) (MB)    (FT/S)
S GREEN BAY BUOY 2130   75 70  150/ 14/ 16 1019.2F
N MID LAKE BUOY  2150   69 70   50/  8/ 10 1019.4F   1/ 4
NORTHPORT PIER   2140   69      80/  3/  4 1019.3F
KEWAUNEE LAKESHO 2124   69     160/  7/  9 1018.7
SHEBOYGAN LAKESH 2200   69     150/  6/  7 1018.4F
PORT WASHINGTON  2140   71     120/  8/ 10 1019.3F
ATWATER BUOY     2130   70 69  120/ 10/ 14 1018.3F   3/ 5
S MID LAKE BUOY  2150   71 72   90/  8/ 10 1017.8F   1/ 3
KENOSHA   LAKESH 2200   72     110/ 13/ 14 1016.9
$$

TC  - TEMPERATURE IN CELSIUS
VSB - VISIBILITY IN STATUTE MILES
WCI - WIND CHILL INDEX
HX  - HEAT INDEX